Location: Great Malvern
(52.1167°N, 2.3167°W)
Time: 01:27:16
(UTC+00:00)

NOSS 8 (H) - Pass Details

Date: 18 September 2020
Orbit: 384 x 1790 km, 63.3° (Epoch: 23 October)

Event Time Altitude Azimuth Distance (km) Brightness Sun altitude
Rises 19:07:42 0° 209° (SSW) 2,406 8.3 -8.7°
Reaches altitude 10° 19:09:53 10° 202° (SSW) 1,462 7.1 -9.0°
Maximum altitude 19:12:51 43° 129° (SE) 561 4.5 -9.4°
Drops below altitude 10° 19:15:45 10° 56° (ENE) 1,435 6.6 -9.9°
Enters shadow 19:17:02 - 51° (NE) 1,984 7.3 -10.0°
